Quick links : Home Page : Contact Us : Index : Site Map : Search Site : Ephemerides


(85310) 1994 WH5

Orbital Elements

The following orbital elements are taken from MPO 62648
 (85310) 1994 WH5
Epoch 2007 Oct. 27.0 TT = JDT 2454400.5                 MPC
M 317.86695              (2000.0)            P               Q
n   0.22600805     Peri.  230.61116     +0.01814656     -0.99972746
a   2.6692348      Node   218.35676     +0.92445347     +0.02237220
e   0.1942629      Incl.    1.35618     +0.38086282     -0.00667024
P   4.36           H   17.4           G   0.15           U   1
From 44 observations at 4 oppositions, 1994-2003, mean residual 0".51.
An explanation of the orbital elements is available.

These orbital elements are also available in forms suitable for loading into a number of popular planetarium-type software programs.


Ephemeris

The following ephemeris is at intervals of five days. A daily ephemeris covering the same time interval is also available.

Personalized ephemerides for this (and other) objects may be generated using the Minor Planet & Comet Ephemeris Service.

Date    TT    R. A. (2000) Decl.     Delta      r     Elong.  Phase     V
2008 08 22    09 03.79   +15 47.2    3.186    2.227    15.4     6.9    22.2
 
2009 03 20    12 25.58   -04 05.4    1.628    2.617   171.8     3.1    20.9
2009 03 25    12 21.27   -03 35.4    1.631    2.628   177.7     0.9    20.7
2009 03 30    12 16.99   -03 05.1    1.641    2.638   175.7     1.6    20.8

Back to Observable Critical-List Minor Planets

MPC

Valid HTML 4.01!